Home > Time Zones > World Clock > Weather > Serbia > Niš > Past weeks

Flag for Serbia Weather past 2 weeks in Niš, Serbia

Now
39 °F

Passing clouds.


Feels Like: 39 °F
Forecast: 41 / 51 °F
Wind: No wind

Location: Nis Airport

Current Time: Jan 31, 2015 at 9:07:58 PM

Latest Report: Jan 31, 2015 at 8:30 PM


Visibility: N/A

Pressure: 29.30 "Hg

Humidity: 81%

Dew point: 34 °F

Location of NišLocation

Historic Weather in Niš — Graph

°F

Niš temperature yesterday

Maximum temperature yesterday: 55 °F (at 2:00 PM)
Minimum temperature yesterday: 37 °F (at 12:00 AM)
Average temperature yesterday: 49 °F

Past Weeks' High & Low Weather Summary

 TemperatureHumidityPressure
High63 °F (Jan 21, 2:30 PM)100% (Jan 19, 2:00 AM)30.21 "Hg (Jan 19, 2:00 AM)
Low28 °F (Jan 17, 1:30 AM)36% (Jan 17, 2:30 PM)28.97 "Hg (Jan 30, 8:30 PM)
Average42 °F82%29.87 "Hg
* Reported Jan 16 8:00 PM — Jan 31 8:00 PM, Niš, Weather by CustomWeather, © 2014

Note: Actual official high and low records may vary slightly from our data, if they occured in-between our weather recording intervals... More about our weather records

Advertising

Niš weather history for previous 24 hours

 ConditionsComfort  
Time TempWeatherWind HumidityBarometerVisibility
8:00 PM
Jan 31
41 °FPassing clouds.3 mph76%29.30 "HgN/A
7:30 PM43 °FPassing clouds.1 mph71%29.30 "HgN/A
7:00 PM41 °FPassing clouds.5 mph70%29.30 "HgN/A
6:30 PM41 °FPassing clouds.1 mph70%29.30 "HgN/A
6:00 PM43 °FPassing clouds.5 mph66%29.30 "HgN/A
5:30 PM43 °FPassing clouds.3 mph66%29.30 "HgN/A
5:00 PM45 °FPassing clouds.3 mph61%29.30 "HgN/A
4:30 PM45 °FPartly sunny.12 mph61%29.30 "HgN/A
4:00 PM45 °FPartly sunny.13 mph61%29.27 "HgN/A
3:30 PM46 °FPartly sunny.17 mph57%29.27 "HgN/A
3:00 PM46 °FPartly sunny.17 mph57%29.27 "HgN/A
2:30 PM48 °FPartly sunny.16 mph50%29.27 "HgN/A
2:00 PM52 °FPartly sunny.12 mph47%29.24 "HgN/A
1:30 PM50 °FPartly sunny.10 mph54%29.24 "HgN/A
1:00 PM52 °FPartly sunny.12 mph50%29.24 "HgN/A
12:30 PM52 °FScattered clouds.14 mph50%29.24 "HgN/A
12:00 PM54 °FScattered clouds.12 mph44%29.27 "HgN/A
11:30 AM50 °FPartly sunny.5 mph43%29.27 "HgN/A
11:00 AM50 °FScattered clouds.3 mph40%29.27 "HgN/A
10:30 AM50 °FScattered clouds.2 mph40%29.27 "HgN/A
10:00 AM50 °FPassing clouds.6 mph40%29.27 "HgN/A
9:30 AM50 °FPassing clouds.6 mph43%29.27 "HgN/A
9:00 AM48 °FPassing clouds.6 mph46%29.24 "HgN/A
8:30 AM46 °FPassing clouds.5 mph50%29.27 "HgN/A
8:00 AM46 °FPassing clouds.5 mph53%29.24 "HgN/A
7:30 AM43 °FPassing clouds.5 mph61%29.24 "HgN/A
7:00 AM41 °FPassing clouds.6 mph61%29.21 "HgN/A
6:30 AM43 °FPassing clouds.8 mph57%29.18 "HgN/A
6:00 AM43 °FPassing clouds.8 mph57%29.18 "HgN/A
5:30 AM43 °FPassing clouds.8 mph57%29.15 "HgN/A
5:00 AM45 °FPassing clouds.9 mph57%29.15 "HgN/A
4:00 AM45 °FPassing clouds.1 mph66%29.12 "HgN/A
3:30 AM43 °FPassing clouds.5 mph76%29.12 "HgN/A
3:00 AM45 °FPassing clouds.5 mph71%29.12 "HgN/A
2:30 AM46 °FPassing clouds.8 mph71%29.09 "HgN/A
2:00 AM46 °FPassing clouds.12 mph71%29.09 "HgN/A
1:30 AM46 °FPassing clouds.7 mph71%29.06 "HgN/A
1:00 AM48 °FPassing clouds.12 mph66%29.06 "HgN/A
12:30 AM48 °FPassing clouds.9 mph66%29.03 "HgN/A
12:00 AM48 °FPassing clouds.12 mph71%29.06 "HgN/A
11:30 PM
Jan 30
50 °FLight rain. Passing clouds.23 mph76%29.03 "HgN/A
11:00 PM50 °FRain. Passing clouds.16 mph76%29.03 "HgN/A
10:30 PM55 °FPassing clouds.16 mph51%28.97 "HgN/A
10:00 PM54 °FPassing clouds.13 mph51%28.97 "HgN/A
9:30 PM54 °FPassing clouds.10 mph51%28.97 "HgN/A
9:00 PM54 °FPassing clouds.10 mph51%28.97 "HgN/A
Weather by CustomWeather, © 2014

See weather overviewHow to use our weather pages